| time (UTC) | temp C | wind direction | speed KPH | gust KPH | rain 1hr cm | rain 24hr cm | rain mn cm | humidity % | barometer mb |
| 20260509022306 | 17 | 54 | 3.2 | 8.0 | 0.00 | 0.00 | 0.00 | 28 | 1006.6 |
| 20260509021305 | 17 | 50 | 4.8 | 19.3 | 0.00 | 0.00 | 0.00 | 27 | 1006.5 |
| 20260509020804 | 17 | 60 | 4.8 | 9.7 | 0.00 | 0.00 | 0.00 | 27 | 1006.5 |
| 20260509020304 | 17 | 64 | 3.2 | 11.3 | 0.00 | 0.00 | 0.00 | 27 | 1006.4 |
| 20260509015805 | 17 | 52 | 3.2 | 14.5 | 0.00 | 0.00 | 0.00 | 27 | 1006.4 |
| 20260509015306 | 17 | 71 | 4.8 | 19.3 | 0.00 | 0.00 | 0.00 | 27 | 1006.4 |
| 20260509014804 | 17 | 57 | 4.8 | 11.3 | 0.00 | 0.00 | 0.00 | 27 | 1006.3 |
| 20260509013805 | 17 | 31 | 3.2 | 9.7 | 0.00 | 0.00 | 0.00 | 26 | 1006.3 |
| 20260509013304 | 17 | 44 | 3.2 | 8.0 | 0.00 | 0.00 | 0.00 | 26 | 1006.3 |
| 20260509012804 | 17 | 65 | 8.0 | 16.1 | 0.00 | 0.00 | 0.00 | 26 | 1006.3 |
| 20260509011805 | 17 | 42 | 4.8 | 14.5 | 0.00 | 0.00 | 0.00 | 26 | 1006.2 |
| 20260509011304 | 17 | 67 | 9.7 | 19.3 | 0.00 | 0.00 | 0.00 | 26 | 1006.2 |
| 20260509010805 | 18 | 56 | 8.0 | 19.3 | 0.00 | 0.00 | 0.00 | 26 | 1006.2 |
| 20260509005805 | 18 | 58 | 6.4 | 22.5 | 0.00 | 0.00 | 0.00 | 25 | 1006.1 |
| 20260509005306 | 18 | 61 | 11.3 | 19.3 | 0.00 | 0.00 | 0.00 | 25 | 1006.1 |
| 20260509004804 | 18 | 55 | 8.0 | 19.3 | 0.00 | 0.00 | 0.00 | 25 | 1006.1 |
| 20260509004304 | 18 | 60 | 4.8 | 16.1 | 0.00 | 0.00 | 0.00 | 26 | 1006.0 |
| 20260509003805 | 18 | 53 | 8.0 | 19.3 | 0.00 | 0.00 | 0.00 | 25 | 1006.0 |
| 20260509003305 | 18 | 49 | 11.3 | 19.3 | 0.00 | 0.00 | 0.00 | 25 | 1006.0 |
| 20260509002805 | 18 | 22 | 6.4 | 22.5 | 0.00 | 0.00 | 0.00 | 26 | 1006.0 |
| 20260509002306 | 18 | 37 | 4.8 | 12.9 | 0.00 | 0.00 | 0.00 | 25 | 1006.0 |
| 20260509001804 | 18 | 51 | 8.0 | 14.5 | 0.00 | 0.00 | 0.00 | 25 | 1006.0 |
| 20260509001304 | 18 | 39 | 8.0 | 14.5 | 0.00 | 0.00 | 0.00 | 25 | 1006.0 |
| 20260509000804 | 18 | 31 | 6.4 | 14.5 | 0.00 | 0.00 | 0.00 | 25 | 1005.9 |
| 20260509000305 | 18 | 25 | 6.4 | 16.1 | 0.00 | 0.00 | 0.00 | 24 | 1006.0 |
| 20260508235804 | 18 | 57 | 8.0 | 14.5 | 0.00 | 0.00 | 0.00 | 24 | 1005.9 |
| 20260508235306 | 18 | 70 | 4.8 | 14.5 | 0.00 | 0.00 | 0.00 | 25 | 1005.9 |
| 20260508234804 | 18 | 56 | 4.8 | 16.1 | 0.00 | 0.00 | 0.00 | 24 | 1006.0 |
| 20260508233804 | 19 | 61 | 9.7 | 19.3 | 0.00 | 0.00 | 0.00 | 24 | 1006.0 |
| 20260508233304 | 19 | 69 | 8.0 | 20.9 | 0.00 | 0.00 | 0.00 | 24 | 1006.0 |
| 20260508232804 | 19 | 23 | 8.0 | 16.1 | 0.00 | 0.00 | 0.00 | 24 | 1006.0 |
| 20260508232307 | 19 | 47 | 8.0 | 19.3 | 0.00 | 0.00 | 0.00 | 24 | 1006.0 |
| 20260508231804 | 19 | 46 | 4.8 | 19.3 | 0.00 | 0.00 | 0.00 | 24 | 1005.9 |
| 20260508231304 | 20 | 47 | 8.0 | 19.3 | 0.00 | 0.00 | 0.00 | 23 | 1005.9 |
| 20260508230805 | 20 | 39 | 6.4 | 19.3 | 0.00 | 0.00 | 0.00 | 23 | 1005.8 |
| 20260508225804 | 20 | 38 | 9.7 | 19.3 | 0.00 | 0.00 | 0.00 | 24 | 1005.8 |
| 20260508225306 | 20 | 32 | 6.4 | 19.3 | 0.00 | 0.00 | 0.00 | 23 | 1005.7 |
| 20260508224805 | 20 | 40 | 6.4 | 14.5 | 0.00 | 0.00 | 0.00 | 23 | 1005.7 |
| 20260508224304 | 20 | 46 | 8.0 | 14.5 | 0.00 | 0.00 | 0.00 | 22 | 1005.6 |
| 20260508223804 | 20 | 44 | 8.0 | 19.3 | 0.00 | 0.00 | 0.00 | 22 | 1005.6 |
| 20260508223304 | 21 | 49 | 9.7 | 20.9 | 0.00 | 0.00 | 0.00 | 22 | 1005.6 |
| 20260508222805 | 21 | 42 | 8.0 | 19.3 | 0.00 | 0.00 | 0.00 | 23 | 1005.7 |
| 20260508222306 | 21 | 25 | 12.9 | 22.5 | 0.00 | 0.00 | 0.00 | 22 | 1005.6 |
| 20260508221804 | 21 | 46 | 6.4 | 19.3 | 0.00 | 0.00 | 0.00 | 23 | 1005.7 |
| 20260508221304 | 21 | 38 | 9.7 | 22.5 | 0.00 | 0.00 | 0.00 | 22 | 1005.7 |
| 20260508220805 | 21 | 39 | 8.0 | 20.9 | 0.00 | 0.00 | 0.00 | 21 | 1005.6 |
| 20260508220304 | 21 | 67 | 9.7 | 19.3 | 0.00 | 0.00 | 0.00 | 22 | 1005.6 |
| 20260508214304 | 20 | 49 | 11.3 | 20.9 | 0.00 | 0.00 | 0.00 | 22 | 1005.7 |
| 20260508213804 | 20 | 48 | 8.0 | 19.3 | 0.00 | 0.00 | 0.00 | 23 | 1005.6 |
| 20260508213304 | 20 | 46 | 6.4 | 20.9 | 0.00 | 0.00 | 0.00 | 23 | 1005.8 |
| 20260508212805 | 20 | 46 | 4.8 | 16.1 | 0.00 | 0.00 | 0.00 | 22 | 1005.8 |
| 20260508212306 | 20 | 30 | 4.8 | 19.3 | 0.00 | 0.00 | 0.00 | 23 | 1005.8 |
| 20260508211804 | 20 | 22 | 8.0 | 19.3 | 0.00 | 0.00 | 0.00 | 23 | 1005.7 |
| 20260508211304 | 21 | 35 | 4.8 | 19.3 | 0.00 | 0.00 | 0.00 | 22 | 1005.8 |
| 20260508210805 | 21 | 45 | 8.0 | 19.3 | 0.00 | 0.00 | 0.00 | 22 | 1005.8 |
| 20260508210304 | 22 | 32 | 8.0 | 19.3 | 0.00 | 0.00 | 0.00 | 21 | 1006.0 |
| 20260508205804 | 22 | 15 | 4.8 | 20.9 | 0.00 | 0.00 | 0.00 | 23 | 1005.9 |
| 20260508205306 | 21 | 42 | 8.0 | 20.9 | 0.00 | 0.00 | 0.00 | 23 | 1005.9 |
| 20260508204805 | 21 | 36 | 8.0 | 19.3 | 0.00 | 0.00 | 0.00 | 21 | 1005.9 |
| 20260508203804 | 21 | 22 | 11.3 | 25.7 | 0.00 | 0.00 | 0.00 | 22 | 1006.0 |
| 20260508203304 | 21 | 55 | 8.0 | 20.9 | 0.00 | 0.00 | 0.00 | 21 | 1006.0 |
| 20260508202805 | 21 | 20 | 6.4 | 22.5 | 0.00 | 0.00 | 0.00 | 22 | 1005.9 |
| 20260508202307 | 21 | 39 | 6.4 | 19.3 | 0.00 | 0.00 | 0.00 | 23 | 1006.1 |
| 20260508201304 | 20 | 1 | 4.8 | 14.5 | 0.00 | 0.00 | 0.00 | 22 | 1006.0 |
| 20260508195805 | 20 | 37 | 9.7 | 22.5 | 0.00 | 0.00 | 0.00 | 22 | 1006.1 |
| 20260508195306 | 20 | 38 | 6.4 | 19.3 | 0.00 | 0.00 | 0.00 | 23 | 1006.1 |
| 20260508194805 | 20 | 46 | 9.7 | 19.3 | 0.00 | 0.00 | 0.00 | 21 | 1006.1 |
| 20260508194304 | 20 | 41 | 6.4 | 14.5 | 0.00 | 0.00 | 0.00 | 24 | 1006.2 |
| 20260508193804 | 20 | 43 | 8.0 | 19.3 | 0.00 | 0.00 | 0.00 | 22 | 1006.2 |
| 20260508192805 | 21 | 37 | 6.4 | 20.9 | 0.00 | 0.00 | 0.00 | 23 | 1006.2 |
| 20260508192306 | 21 | 31 | 9.7 | 19.3 | 0.00 | 0.00 | 0.00 | 22 | 1006.3 |
| 20260508191305 | 21 | 36 | 8.0 | 14.5 | 0.00 | 0.00 | 0.00 | 24 | 1006.3 |
| 20260508190805 | 21 | 35 | 8.0 | 19.3 | 0.00 | 0.00 | 0.00 | 23 | 1006.4 |
| 20260508190305 | 21 | 30 | 8.0 | 24.1 | 0.00 | 0.00 | 0.00 | 22 | 1006.5 |
| 20260508185804 | 21 | 18 | 4.8 | 19.3 | 0.00 | 0.00 | 0.00 | 24 | 1006.5 |
| 20260508185306 | 21 | 36 | 9.7 | 22.5 | 0.00 | 0.00 | 0.00 | 23 | 1006.6 |
| 20260508184805 | 20 | 11 | 4.8 | 16.1 | 0.00 | 0.00 | 0.00 | 25 | 1006.6 |
| 20260508184304 | 20 | 14 | 9.7 | 20.9 | 0.00 | 0.00 | 0.00 | 25 | 1006.7 |
| 20260508183804 | 20 | 48 | 9.7 | 20.9 | 0.00 | 0.00 | 0.00 | 23 | 1006.7 |
| 20260508183305 | 20 | 23 | 9.7 | 19.3 | 0.00 | 0.00 | 0.00 | 23 | 1006.7 |
| 20260508182805 | 20 | 8 | 8.0 | 19.3 | 0.00 | 0.00 | 0.00 | 25 | 1006.7 |
| 20260508182306 | 20 | 44 | 8.0 | 14.5 | 0.00 | 0.00 | 0.00 | 23 | 1006.7 |
| 20260508181805 | 20 | 18 | 11.3 | 22.5 | 0.00 | 0.00 | 0.00 | 24 | 1006.8 |
| 20260508181305 | 20 | 21 | 9.7 | 20.9 | 0.00 | 0.00 | 0.00 | 26 | 1006.8 |
| 20260508180304 | 18 | 9 | 9.7 | 25.7 | 0.00 | 0.00 | 0.00 | 27 | 1006.9 |
| 20260508175804 | 18 | 31 | 4.8 | 19.3 | 0.00 | 0.00 | 0.00 | 25 | 1006.8 |
| 20260508175306 | 18 | 27 | 4.8 | 14.5 | 0.00 | 0.00 | 0.00 | 26 | 1006.8 |
| 20260508174805 | 18 | 21 | 8.0 | 24.1 | 0.00 | 0.00 | 0.00 | 26 | 1006.8 |
| 20260508174304 | 18 | 16 | 9.7 | 22.5 | 0.00 | 0.00 | 0.00 | 27 | 1006.9 |
| 20260508173804 | 18 | 39 | 8.0 | 19.3 | 0.00 | 0.00 | 0.00 | 27 | 1006.9 |
| 20260508173304 | 18 | 20 | 9.7 | 19.3 | 0.00 | 0.00 | 0.00 | 26 | 1006.8 |
| 20260508172307 | 18 | 11 | 6.4 | 24.1 | 0.00 | 0.00 | 0.00 | 27 | 1007.0 |
| 20260508171804 | 18 | 28 | 6.4 | 16.1 | 0.00 | 0.00 | 0.00 | 26 | 1006.9 |
| 20260508171305 | 18 | 23 | 8.0 | 14.5 | 0.00 | 0.00 | 0.00 | 25 | 1007.0 |
| 20260508170804 | 18 | 42 | 8.0 | 20.9 | 0.00 | 0.00 | 0.00 | 27 | 1007.0 |
| 20260508170304 | 17 | 27 | 9.7 | 19.3 | 0.00 | 0.00 | 0.00 | 27 | 1007.1 |
| 20260508165805 | 17 | 45 | 8.0 | 19.3 | 0.00 | 0.00 | 0.00 | 27 | 1007.2 |
| 20260508165306 | 17 | 13 | 9.7 | 24.1 | 0.00 | 0.00 | 0.00 | 26 | 1007.2 |
| 20260508164804 | 17 | 35 | 9.7 | 19.3 | 0.00 | 0.00 | 0.00 | 26 | 1007.1 |
| 20260508164305 | 18 | 40 | 11.3 | 20.9 | 0.00 | 0.00 | 0.00 | 25 | 1007.1 |
| 20260508163806 | 18 | 40 | 8.0 | 19.3 | 0.00 | 0.00 | 0.00 | 26 | 1007.1 |
| 20260508162805 | 18 | 20 | 11.3 | 24.1 | 0.00 | 0.00 | 0.00 | 26 | 1007.2 |
| 20260508161305 | 17 | 26 | 8.0 | 19.3 | 0.00 | 0.00 | 0.00 | 26 | 1007.2 |
| 20260508160804 | 17 | 15 | 11.3 | 22.5 | 0.00 | 0.00 | 0.00 | 27 | 1007.3 |
| 20260508160304 | 17 | 41 | 9.7 | 22.5 | 0.00 | 0.00 | 0.00 | 27 | 1007.3 |
| 20260508155805 | 17 | 34 | 11.3 | 25.7 | 0.00 | 0.00 | 0.00 | 27 | 1007.3 |
| 20260508155306 | 17 | 34 | 9.7 | 24.1 | 0.00 | 0.00 | 0.00 | 28 | 1007.3 |
| 20260508154304 | 17 | 27 | 11.3 | 19.3 | 0.00 | 0.00 | 0.00 | 30 | 1007.3 |
| 20260508153805 | 16 | 16 | 8.0 | 19.3 | 0.00 | 0.00 | 0.00 | 30 | 1007.3 |
| 20260508153303 | 16 | 25 | 9.7 | 22.5 | 0.00 | 0.00 | 0.00 | 31 | 1007.3 |
| 20260508152805 | 16 | 13 | 9.7 | 22.5 | 0.00 | 0.00 | 0.00 | 31 | 1007.2 |
| 20260508152306 | 16 | 14 | 11.3 | 19.3 | 0.00 | 0.00 | 0.00 | 32 | 1007.3 |
| 20260508151807 | 15 | 30 | 8.0 | 19.3 | 0.00 | 0.00 | 0.00 | 32 | 1007.3 |
| 20260508150806 | 15 | 24 | 9.7 | 22.5 | 0.00 | 0.00 | 0.00 | 32 | 1007.2 |
| 20260508150306 | 15 | 20 | 9.7 | 19.3 | 0.00 | 0.00 | 0.00 | 34 | 1007.2 |
| 20260508145805 | 14 | 26 | 8.0 | 16.1 | 0.00 | 0.00 | 0.00 | 35 | 1007.2 |
| 20260508145307 | 13 | 10 | 3.2 | 12.9 | 0.00 | 0.00 | 0.00 | 37 | 1007.3 |
| 20260508144805 | 13 | 4 | 6.4 | 16.1 | 0.00 | 0.00 | 0.00 | 37 | 1007.3 |
| 20260508144307 | 13 | 11 | 4.8 | 19.3 | 0.00 | 0.00 | 0.00 | 38 | 1007.4 |
| 20260508143805 | 13 | 352 | 8.0 | 16.1 | 0.00 | 0.00 | 0.00 | 38 | 1007.4 |
| 20260508143305 | 12 | 0 | 9.7 | 14.5 | 0.00 | 0.00 | 0.00 | 38 | 1007.4 |
| 20260508142307 | 12 | 12 | 8.0 | 16.1 | 0.00 | 0.00 | 0.00 | 40 | 1007.4 |
| 20260508141805 | 11 | 6 | 6.4 | 16.1 | 0.00 | 0.00 | 0.00 | 41 | 1007.5 |
| 20260508141305 | 11 | 0 | 6.4 | 16.1 | 0.00 | 0.00 | 0.00 | 42 | 1007.5 |
| 20260508140806 | 11 | 1 | 4.8 | 9.7 | 0.00 | 0.00 | 0.00 | 43 | 1007.6 |
| 20260508135805 | 11 | 16 | 3.2 | 8.0 | 0.00 | 0.00 | 0.00 | 43 | 1007.5 |
| 20260508135306 | 11 | 357 | 1.6 | 8.0 | 0.00 | 0.00 | 0.00 | 44 | 1007.5 |
| 20260508134307 | 10 | 14 | 4.8 | 9.7 | 0.00 | 0.00 | 0.00 | 44 | 1007.4 |
| 20260508133805 | 10 | 351 | 4.8 | 9.7 | 0.00 | 0.00 | 0.00 | 45 | 1007.4 |
| 20260508133305 | 10 | 359 | 4.8 | 12.9 | 0.00 | 0.00 | 0.00 | 46 | 1007.4 |
| 20260508132805 | 10 | 2 | 3.2 | 14.5 | 0.00 | 0.00 | 0.00 | 46 | 1007.4 |
| 20260508132307 | 10 | 5 | 4.8 | 14.5 | 0.00 | 0.00 | 0.00 | 47 | 1007.3 |
| 20260508131806 | 10 | 355 | 8.0 | 14.5 | 0.00 | 0.00 | 0.00 | 47 | 1007.3 |
| 20260508131305 | 9 | 12 | 6.4 | 16.1 | 0.00 | 0.00 | 0.00 | 48 | 1007.3 |
| 20260508130805 | 8 | 4 | 4.8 | 14.5 | 0.00 | 0.00 | 0.00 | 50 | 1007.3 |
| 20260508130306 | 8 | 13 | 4.8 | 8.0 | 0.00 | 0.00 | 0.00 | 52 | 1007.3 |
| 20260508125306 | 7 | 337 | 4.8 | 9.7 | 0.00 | 0.00 | 0.00 | 54 | 1007.3 |
| 20260508124306 | 7 | 1 | 3.2 | 4.8 | 0.00 | 0.00 | 0.00 | 58 | 1007.3 |
| 20260508123805 | 7 | 356 | 3.2 | 4.8 | 0.00 | 0.00 | 0.00 | 60 | 1007.2 |
| 20260508123306 | 7 | 355 | 0.0 | 0.0 | 0.00 | 0.00 | 0.00 | 61 | 1007.2 |
| 20260508122805 | 7 | 355 | 0.0 | 0.0 | 0.00 | 0.00 | 0.00 | 60 | 1007.1 |
| 20260508122307 | 6 | 355 | 1.6 | 3.2 | 0.00 | 0.00 | 0.00 | 61 | 1007.1 |
| 20260508121805 | 6 | 355 | 1.6 | 4.8 | 0.00 | 0.00 | 0.00 | 61 | 1007.1 |
| 20260508121305 | 6 | 355 | 1.6 | 3.2 | 0.00 | 0.00 | 0.00 | 62 | 1007.1 |
| 20260508120805 | 6 | 355 | 0.0 | 1.6 | 0.00 | 0.00 | 0.00 | 64 | 1007.1 |
| 20260508120306 | 6 | 355 | 0.0 | 0.0 | 0.00 | 0.00 | 0.00 | 65 | 1007.0 |
| 20260508115805 | 6 | 355 | 0.0 | 3.2 | 0.00 | 0.00 | 0.00 | 66 | 1007.0 |
| 20260508115306 | 6 | 355 | 0.0 | 3.2 | 0.00 | 0.00 | 0.00 | 67 | 1007.0 |
| 20260508114806 | 5 | 355 | 0.0 | 4.8 | 0.00 | 0.00 | 0.00 | 68 | 1007.0 |
| 20260508113805 | 5 | 355 | 0.0 | 0.0 | 0.00 | 0.00 | 0.00 | 69 | 1006.9 |
| 20260508113306 | 5 | 355 | 0.0 | 0.0 | 0.00 | 0.00 | 0.00 | 68 | 1006.9 |
| 20260508112805 | 6 | 355 | 0.0 | 0.0 | 0.00 | 0.00 | 0.00 | 68 | 1006.9 |
| 20260508112307 | 6 | 355 | 0.0 | 0.0 | 0.00 | 0.00 | 0.00 | 67 | 1006.9 |
| 20260508111806 | 6 | 355 | 0.0 | 0.0 | 0.00 | 0.00 | 0.00 | 67 | 1006.9 |
| 20260508110806 | 6 | 355 | 0.0 | 0.0 | 0.00 | 0.00 | 0.00 | 67 | 1006.7 |
| 20260508110306 | 6 | 355 | 0.0 | 0.0 | 0.00 | 0.00 | 0.00 | 67 | 1006.7 |
| 20260508105806 | 6 | 355 | 0.0 | 0.0 | 0.00 | 0.00 | 0.00 | 66 | 1006.7 |
| 20260508105307 | 6 | 355 | 0.0 | 0.0 | 0.00 | 0.00 | 0.00 | 66 | 1006.7 |
| 20260508104805 | 6 | 355 | 0.0 | 0.0 | 0.00 | 0.00 | 0.00 | 66 | 1006.7 |
| 20260508104305 | 6 | 355 | 0.0 | 1.6 | 0.00 | 0.00 | 0.00 | 65 | 1006.7 |
| 20260508103806 | 6 | 355 | 0.0 | 0.0 | 0.00 | 0.00 | 0.00 | 64 | 1006.7 |
| 20260508103306 | 7 | 355 | 0.0 | 0.0 | 0.00 | 0.00 | 0.00 | 64 | 1006.7 |
| 20260508102805 | 7 | 355 | 0.0 | 1.6 | 0.00 | 0.00 | 0.00 | 63 | 1006.7 |
| 20260508102306 | 7 | 355 | 0.0 | 1.6 | 0.00 | 0.00 | 0.00 | 62 | 1006.7 |
| 20260508101806 | 7 | 355 | 0.0 | 3.2 | 0.00 | 0.00 | 0.00 | 62 | 1006.7 |
| 20260508100305 | 8 | 310 | 0.0 | 3.2 | 0.00 | 0.00 | 0.00 | 60 | 1006.5 |
| 20260508095807 | 8 | 310 | 0.0 | 4.8 | 0.00 | 0.00 | 0.00 | 61 | 1006.5 |
| 20260508095307 | 8 | 310 | 0.0 | 0.0 | 0.00 | 0.00 | 0.00 | 61 | 1006.5 |
| 20260508094805 | 8 | 310 | 0.0 | 1.6 | 0.00 | 0.00 | 0.00 | 61 | 1006.6 |
| 20260508094305 | 8 | 310 | 1.6 | 3.2 | 0.00 | 0.00 | 0.00 | 62 | 1006.6 |
| 20260508093806 | 7 | 310 | 1.6 | 3.2 | 0.00 | 0.00 | 0.00 | 62 | 1006.6 |
| 20260508093305 | 7 | 310 | 0.0 | 3.2 | 0.00 | 0.00 | 0.00 | 62 | 1006.6 |
| 20260508092805 | 7 | 310 | 1.6 | 3.2 | 0.00 | 0.00 | 0.00 | 63 | 1006.7 |
| 20260508091306 | 7 | 311 | 0.0 | 1.6 | 0.00 | 0.00 | 0.00 | 62 | 1006.8 |
| 20260508090805 | 7 | 311 | 0.0 | 1.6 | 0.00 | 0.00 | 0.00 | 62 | 1006.8 |
| 20260508090306 | 7 | 311 | 0.0 | 1.6 | 0.00 | 0.00 | 0.00 | 63 | 1006.9 |
| 20260508085805 | 7 | 311 | 0.0 | 1.6 | 0.00 | 0.00 | 0.00 | 62 | 1007.0 |
| 20260508085307 | 7 | 311 | 0.0 | 0.0 | 0.00 | 0.00 | 0.00 | 60 | 1007.0 |
| 20260508084805 | 7 | 311 | 0.0 | 1.6 | 0.00 | 0.00 | 0.00 | 59 | 1007.1 |
| 20260508082805 | 8 | 311 | 0.0 | 1.6 | 0.00 | 0.00 | 0.00 | 56 | 1007.0 |
| 20260508082306 | 8 | 311 | 1.6 | 3.2 | 0.00 | 0.00 | 0.00 | 56 | 1007.0 |
| 20260508081805 | 8 | 311 | 1.6 | 3.2 | 0.00 | 0.00 | 0.00 | 56 | 1007.0 |
| 20260508081306 | 8 | 311 | 0.0 | 1.6 | 0.00 | 0.00 | 0.00 | 56 | 1007.0 |
| 20260508080806 | 8 | 311 | 0.0 | 0.0 | 0.00 | 0.00 | 0.00 | 55 | 1007.0 |
| 20260508080306 | 8 | 311 | 0.0 | 0.0 | 0.00 | 0.00 | 0.00 | 54 | 1007.1 |
| 20260508075308 | 9 | 311 | 0.0 | 0.0 | 0.00 | 0.00 | 0.00 | 53 | 1007.1 |
| 20260508074806 | 9 | 311 | 0.0 | 0.0 | 0.00 | 0.00 | 0.00 | 53 | 1007.1 |
| 20260508074306 | 9 | 311 | 0.0 | 0.0 | 0.00 | 0.00 | 0.00 | 52 | 1007.1 |
| 20260508073806 | 9 | 311 | 0.0 | 0.0 | 0.00 | 0.00 | 0.00 | 52 | 1007.0 |
| 20260508073305 | 9 | 311 | 0.0 | 0.0 | 0.00 | 0.00 | 0.00 | 51 | 1007.0 |
| 20260508072806 | 9 | 311 | 0.0 | 1.6 | 0.00 | 0.00 | 0.00 | 51 | 1007.1 |
| 20260508072307 | 9 | 311 | 0.0 | 1.6 | 0.00 | 0.00 | 0.00 | 51 | 1007.0 |
| 20260508071305 | 9 | 311 | 0.0 | 0.0 | 0.00 | 0.00 | 0.00 | 52 | 1007.0 |
| 20260508070806 | 9 | 311 | 0.0 | 3.2 | 0.00 | 0.00 | 0.00 | 53 | 1007.0 |
| 20260508070305 | 9 | 311 | 0.0 | 1.6 | 0.00 | 0.00 | 0.00 | 52 | 1006.9 |
| 20260508065307 | 10 | 311 | 0.0 | 0.0 | 0.00 | 0.00 | 0.00 | 50 | 1006.9 |
| 20260508064806 | 10 | 311 | 0.0 | 0.0 | 0.00 | 0.00 | 0.00 | 49 | 1006.9 |
| 20260508064306 | 10 | 311 | 0.0 | 0.0 | 0.00 | 0.00 | 0.00 | 49 | 1006.9 |
| 20260508063805 | 11 | 311 | 0.0 | 0.0 | 0.00 | 0.00 | 0.00 | 48 | 1006.9 |
| 20260508063305 | 11 | 311 | 0.0 | 4.8 | 0.00 | 0.00 | 0.00 | 48 | 1007.0 |
| 20260508062806 | 11 | 310 | 1.6 | 3.2 | 0.00 | 0.00 | 0.00 | 48 | 1007.0 |
| 20260508062306 | 11 | 269 | 0.0 | 0.0 | 0.00 | 0.00 | 0.00 | 46 | 1007.0 |
| 20260508061805 | 11 | 269 | 0.0 | 0.0 | 0.00 | 0.00 | 0.00 | 45 | 1007.0 |
| 20260508061306 | 12 | 269 | 0.0 | 0.0 | 0.00 | 0.00 | 0.00 | 45 | 1006.9 |
| 20260508060819 | 11 | 269 | 0.0 | 0.0 | 0.00 | 0.00 | 0.00 | 45 | 1007.0 |
| 20260508055805 | 11 | 269 | 0.0 | 1.6 | 0.00 | 0.00 | 0.00 | 45 | 1006.9 |
| 20260508055306 | 11 | 269 | 0.0 | 1.6 | 0.00 | 0.00 | 0.00 | 44 | 1007.0 |
| 20260508054306 | 12 | 269 | 0.0 | 1.6 | 0.00 | 0.00 | 0.00 | 43 | 1007.0 |
| 20260508053805 | 12 | 269 | 0.0 | 1.6 | 0.00 | 0.00 | 0.00 | 42 | 1007.0 |
| 20260508053305 | 12 | 269 | 0.0 | 1.6 | 0.00 | 0.00 | 0.00 | 42 | 1007.0 |
| 20260508052806 | 12 | 269 | 0.0 | 0.0 | 0.00 | 0.00 | 0.00 | 40 | 1007.0 |
| 20260508052307 | 12 | 269 | 0.0 | 1.6 | 0.00 | 0.00 | 0.00 | 39 | 1007.0 |
| 20260508051806 | 13 | 269 | 0.0 | 1.6 | 0.00 | 0.00 | 0.00 | 40 | 1007.1 |
| 20260508051305 | 13 | 269 | 0.0 | 1.6 | 0.00 | 0.00 | 0.00 | 38 | 1007.1 |
| 20260508050807 | 13 | 269 | 1.6 | 4.8 | 0.00 | 0.00 | 0.00 | 39 | 1007.1 |
| 20260508050305 | 12 | 269 | 3.2 | 4.8 | 0.00 | 0.00 | 0.00 | 40 | 1007.1 |
| 20260508045805 | 12 | 293 | 4.8 | 4.8 | 0.00 | 0.00 | 0.00 | 41 | 1007.2 |
| 20260508045307 | 12 | 294 | 0.0 | 0.0 | 0.00 | 0.00 | 0.00 | 40 | 1007.2 |
| 20260508044806 | 12 | 294 | 0.0 | 0.0 | 0.00 | 0.00 | 0.00 | 40 | 1007.2 |
| 20260508044305 | 12 | 294 | 0.0 | 0.0 | 0.00 | 0.00 | 0.00 | 41 | 1007.2 |
| 20260508043806 | 12 | 294 | 0.0 | 0.0 | 0.00 | 0.00 | 0.00 | 40 | 1007.1 |
| 20260508043306 | 12 | 294 | 0.0 | 0.0 | 0.00 | 0.00 | 0.00 | 40 | 1007.1 |
| 20260508042806 | 13 | 294 | 0.0 | 0.0 | 0.00 | 0.00 | 0.00 | 39 | 1007.1 |
| 20260508042307 | 13 | 294 | 0.0 | 0.0 | 0.00 | 0.00 | 0.00 | 39 | 1007.1 |
| 20260508041805 | 13 | 294 | 0.0 | 0.0 | 0.00 | 0.00 | 0.00 | 39 | 1007.0 |
| 20260508041306 | 13 | 294 | 0.0 | 0.0 | 0.00 | 0.00 | 0.00 | 38 | 1007.1 |
| 20260508040805 | 13 | 294 | 0.0 | 0.0 | 0.00 | 0.00 | 0.00 | 38 | 1007.1 |
| 20260508040305 | 13 | 294 | 0.0 | 0.0 | 0.00 | 0.00 | 0.00 | 37 | 1007.1 |
| 20260508035307 | 14 | 294 | 0.0 | 0.0 | 0.00 | 0.00 | 0.00 | 36 | 1007.1 |
| 20260508034805 | 15 | 294 | 0.0 | 0.0 | 0.00 | 0.00 | 0.00 | 35 | 1007.1 |
| 20260508034305 | 15 | 294 | 0.0 | 0.0 | 0.00 | 0.00 | 0.00 | 36 | 1007.0 |
| 20260508033805 | 15 | 294 | 0.0 | 0.0 | 0.00 | 0.00 | 0.00 | 34 | 1007.0 |
| 20260508033306 | 15 | 294 | 0.0 | 0.0 | 0.00 | 0.00 | 0.00 | 32 | 1007.0 |
| 20260508032306 | 16 | 294 | 0.0 | 0.0 | 0.00 | 0.00 | 0.00 | 31 | 1007.0 |
| 20260508031805 | 16 | 294 | 0.0 | 0.0 | 0.00 | 0.00 | 0.00 | 31 | 1007.0 |
| 20260508031306 | 16 | 294 | 0.0 | 0.0 | 0.00 | 0.00 | 0.00 | 30 | 1006.8 |
| 20260508030805 | 17 | 294 | 0.0 | 1.6 | 0.00 | 0.00 | 0.00 | 29 | 1006.9 |
| 20260508030305 | 17 | 294 | 0.0 | 3.2 | 0.00 | 0.00 | 0.00 | 29 | 1006.8 |
| 20260508025805 | 17 | 294 | 1.6 | 3.2 | 0.00 | 0.00 | 0.00 | 29 | 1006.8 |
| 20260508025306 | 17 | 294 | 1.6 | 9.7 | 0.00 | 0.00 | 0.00 | 30 | 1006.8 |
| 20260508023805 | 17 | 230 | 4.8 | 12.9 | 0.00 | 0.00 | 0.00 | 29 | 1006.7 |
| 20260508023306 | 17 | 267 | 3.2 | 9.7 | 0.00 | 0.00 | 0.00 | 28 | 1006.8 |